User: anonymous   Login
Location: Auckland
(36.8670°S, 174.7670°E)
Time: 19:59:45
(UTC+12:00)
Language:

Tiros 1 - Orbit

View from above orbital plane
View from above orbital plane
View from above satellite
View from above satellite

Ground track
Ground track

The orbit data is extracted from the following two-line orbital elements,

1    29U 60002B   19200.88960040 -.00000160 +00000-0 +71122-5 0  9992
2    29 048.3804 082.7531 0024465 246.2071 113.6275 14.74310731169326
Epoch (UTC): 19 July 2019 21:21:01
Eccentricity: 0.0024465
inclination: 48.3804°
perigee height: 630 km
apogee height: 664 km
right ascension of ascending node: 82.7531°
argument of perigee: 246.2071°
revolutions per day: 14.74310731
mean anomaly at epoch: 113.6275°
orbit number at epoch: 16932

The dashed part of the orbit path shows where the satellite is in the earth's shadow,  

DLR